This is the latest recevied weather packets stored in our database for station/object TA1FM. If no packets are shown the sender has not sent any weather packets the latest 10 day(s).
| Time | Temp. | Humidity | Pressure | Rain* | Wind** | Luminosity | Snow |
|---|---|---|---|---|---|---|---|
| 1777498709 | 10.56° C | 30% | 912.6 hPa | - | - | - | - |
| 1777497808 | 10.56° C | 30% | 912.8 hPa | - | - | - | - |
| 1777496908 | 10.56° C | 31% | 912.8 hPa | - | - | - | - |
| 1777496008 | 10.56° C | 32% | 912.8 hPa | - | - | - | - |
| 1777495108 | 10.56° C | 35% | 912.9 hPa | - | - | - | - |
| 1777494208 | 10.56° C | 36% | 912.9 hPa | - | - | - | - |
| 1777493308 | 10.56° C | 41% | 912.8 hPa | - | - | - | - |
| 1777492408 | 10.56° C | 48% | 913 hPa | - | - | - | - |
| 1777491504 | 10.56° C | 48% | 912.9 hPa | - | - | - | - |
| 1777490608 | 10.56° C | 49% | 912.9 hPa | - | - | - | - |
| 1777489704 | 10.56° C | 47% | 912.8 hPa | - | - | - | - |
| 1777487904 | 10.56° C | 43% | 912.9 hPa | - | - | - | - |
| 1777487004 | 11.11° C | 40% | 912.9 hPa | - | - | - | - |
| 1777486106 | 11.11° C | 35% | 912.9 hPa | - | - | - | - |
| 1777485211 | 11.11° C | 29% | 912.8 hPa | - | - | - | - |
| 1777484311 | 11.67° C | 29% | 912.7 hPa | - | - | - | - |
| 1777483406 | 11.67° C | 28% | 912.6 hPa | - | - | - | - |
| 1777482503 | 11.67° C | 27% | 912.5 hPa | - | - | - | - |
| 1777481604 | 12.22° C | 27% | 912.6 hPa | - | - | - | - |
| 1777480703 | 12.22° C | 27% | 912.5 hPa | - | - | - | - |
| 1777479802 | 12.78° C | 26% | 912.6 hPa | - | - | - | - |
| 1777478901 | 12.78° C | 25% | 912.6 hPa | - | - | - | - |
| 1777476207 | 13.89° C | 26% | 912.6 hPa | - | - | - | - |
| 1777475304 | 13.89° C | 25% | 912.7 hPa | - | - | - | - |
| 1777474399 | 13.89° C | 27% | 912.7 hPa | - | - | - | - |
* Rain since midnight (hover to see other rain measurements)
** Current wind speed in m/s (hover to see current wind gust speed)